Regional Weather Roundup
Issued by NWS Mt. Holly, NJ

Home | Current Version | Previous Version | Text Only | Print | Product List | Glossary On
Versions: 1 2 3 4 5 6 7 8 9 10 11 12 13 14 15 16 17 18 19 20 21 22 23 24 25 26 27 28 29 30 31 32 33 34 35 36 37 38 39 40 41 42 43 44 45 46 47 48 49 50
014
ASUS41 KPHI 180412
RWRPHI

REGIONAL WEATHER ROUNDUP
NATIONAL WEATHER SERVICE MOUNT HOLLY NJ
1100 PM EST FRI NOV 17 2017

NOTE:  "FAIR" INDICATES FEW OR NO CLOUDS BELOW 12,000 FEET WITH NO
SIGNIFICANT WEATHER AND/OR OBSTRUCTIONS TO VISIBILITY.

 * = STATION DOES NOT REPORT PRECIPITATION (E.G. RAIN, SNOW, ETC.)
        OR FOG.

NJZ015>026-180500-
SOUTHERN NEW JERSEY

CITY           SKY/WX    TMP DP  RH WIND       PRES   REMARKS
POMONA         CLEAR     35  27  72 CALM      30.10F
MILLVILLE      CLEAR     29  26  89 CALM      30.11F
WRIGHTSTOWN    CLEAR     29  25  82 CALM      30.07F
MOUNT HOLLY    CLEAR     29  26  89 CALM      30.10F
TRENTON        CLEAR     32  23  69 CALM      30.08F

$$
NJZ001>014-180500-
NORTHERN NEW JERSEY

CITY           SKY/WX    TMP DP  RH WIND       PRES   REMARKS
SUSSEX         CLEAR     29  19  66 CALM      30.06F
ANDOVER*       NOT AVBL
MORRISTOWN     CLEAR     28  23  80 CALM      30.08S
NEWARK         PTCLDY    38  17  42 W7        30.08F WCI  33
TETERBORO      CLEAR     37  15  40 NW6       30.07F WCI  32
CALDWELL       CLEAR     33  18  53 S5        30.08F WCI  29
SOMERVILLE     CLEAR     27  23  85 NW3       30.08F
ALLAIRE*       CLEAR     31  22  69 W7        30.09F WCI  24
TOMS RIVER*    CLEAR     27  23  85 CALM      30.10F

$$
PAZ043-044-047-054-055-060>062-066>071-180500-
EASTERN PENNSYLVANIA

CITY           SKY/WX    TMP DP  RH WIND       PRES   REMARKS
PHILADELPHIA   CLOUDY    39  27  62 SW3       30.11F
NORTH PHILA    CLEAR     35  25  66 CALM      30.11F
BLUE BELL*     CLEAR     27  27 100 CALM      30.11F
DOYLESTOWN     CLEAR     30  23  75 CALM      30.08F
QUAKERTOWN*    CLEAR     28  25  86 CALM      30.09S
PERKASIE*      FAIR      28  23  80 CALM      30.09S
POTTSTOWN      CLOUDY    30  24  78 CALM      30.10F
LANCASTER      PTCLDY    34  27  75 CALM      30.08F
COATESVILLE    PTCLDY    36  25  64 CALM      30.08F
READING        CLOUDY    32  28  85 CALM      30.07F
ALLENTOWN      CLEAR     30  22  72 CALM      30.07F
MOUNT POCONO   CLOUDY    25  18  74 NW6       30.01F WCI  18
HAZLETON       CLOUDY    25  12  58 CALM      30.05F
LEHIGHTON      FAIR      27  25  93 CALM      30.09F
WILKES BARRE   CLOUDY    31  19  61 SE5       30.05F WCI  26

$$
DEZALL-MDZ008-012-015-019-020-180500-
DELAWARE AND EASTERN MARYLAND

CITY           SKY/WX    TMP DP  RH WIND       PRES   REMARKS
WILMINGTON     CLOUDY    36  27  69 S3        30.12S
DOVER          PTCLDY    34  34 100 CALM      30.11F
GEORGETOWN     CLOUDY    33  28  81 CALM      30.12F
EASTON         CLOUDY    34  31  88 CALM      30.14F
ABERDEEN       CLOUDY    31  29  92 CALM      30.11F
PATUXENT       PTCLDY    33  31  92 SW5       30.12F WCI  29
OCEAN CITY     CLEAR     32  31  96 CALM      30.13F
WALLOPS ISLAND CLEAR     34  32  92 CALM      30.14S
CAMBRIDGE      CLEAR     32  30  93 SE3       30.12F FOG
SALISBURY      CLOUDY    30  28  92 CALM      30.13F

$$
PAZ001-021-NYZ056-072-MDZ011-DCZ001-180500-
OTHER NEARBY LOCATIONS

CITY           SKY/WX    TMP DP  RH WIND       PRES   REMARKS
HARRISBURG     MOCLDY    35  30  82 CALM      30.07F
STATE COLLEGE  CLOUDY    32  26  79 W3        30.02F
WILLIAMSPORT   CLOUDY    31  24  75 CALM      30.04F
BINGHAMTON     CLOUDY    26  16  65 S5        29.99F WCI  20
NEW YORK CITY  CLEAR     39  16  39 CALM      30.09F
BALTIMORE      CLOUDY    33  29  85 W3        30.10F
WASHINGTON DC  CLOUDY    40  31  70 SW6       30.12F

$$




USA.gov is the U.S. government's official web portal to all federal, state and local government web resources and services.